FW2445 Weather Reports


Display with metric or nautical units.
time (UTC)temp
F
wind
direction
speed
MPH
gust
MPH
rain 1hr
in
rain 24hr
in
rain mn
in
humidity
%
barometer
mb
20260506024544 69 256 0.0 0.0 0.00 0.08 0.08 1 1004.3
20260506023033 69 256 0.0 0.0 0.00 0.08 0.08 1 1004.6
20260506021529 69 256 0.0 0.0 0.00 0.08 0.08 1 1004.1
20260506020025 70 256 0.0 0.0 0.00 0.08 0.08 1 1004.3
20260506014525 70 256 0.0 0.0 0.00 0.08 0.08 1 1004.5
20260506013017 70 256 0.0 0.0 0.00 0.08 0.08 1 1004.1
20260506011513 71 256 0.0 0.0 0.00 0.08 0.08 1 1004.2
20260506010010 71 256 0.0 0.0 0.00 0.08 0.08 1 1003.8
20260506004507 71 254 0.0 0.0 0.00 0.08 0.08 1 1003.8
20260506003001 71 4 0.0 0.0 0.00 0.08 0.08 1 1003.7
20260506001557 71 4 0.0 0.0 0.00 0.08 0.08 1 1003.3
20260506000055 72 4 0.0 0.0 0.00 0.08 0.08 1 1003.6
20260505234600 72 4 0.0 0.0 0.00 0.08 0.08 1 1003.7
20260505233046 72 4 0.0 0.0 0.00 0.08 0.08 1 1003.2
20260505231600 72 4 0.0 0.0 0.00 0.08 0.08 1 1003.3
20260505230040 72 4 0.0 0.0 0.00 0.08 0.08 1 1003.6
20260505224537 72 4 0.0 0.0 0.00 0.08 0.08 1 1003.3
20260505223034 71 4 0.0 0.0 0.00 0.08 0.08 1 1003.4
20260505221527 71 4 0.0 0.0 0.00 0.08 0.08 1 1003.6
20260505220024 70 4 0.0 0.0 0.00 0.08 0.08 1 1003.6
20260505214529 70 4 0.0 0.0 0.00 0.08 0.08 1 1003.6
20260505213018 70 4 0.0 0.0 0.00 0.08 0.08 1 1003.8
20260505211512 70 4 0.0 0.0 0.00 0.08 0.08 1 1003.9
20260505210009 70 4 0.0 0.0 0.00 0.08 0.08 1 1004.1
20260505204504 69 4 0.0 0.0 0.00 0.08 0.08 1 1004.3
20260505203101 69 4 0.0 0.0 0.00 0.08 0.08 1 1004.4
20260505201558 69 4 0.0 0.0 0.00 0.08 0.08 1 1004.6
20260505200059 68 4 0.0 0.0 0.00 0.08 0.08 1 1004.3
20260505194549 68 4 0.0 0.0 0.01 0.08 0.08 1 1004.2
20260505193044 68 4 0.0 0.0 0.01 0.08 0.08 1 1004.3
20260505191545 67 52 0.0 0.0 0.02 0.08 0.08 1 1004.6
20260505190040 67 9 0.0 0.0 0.02 0.08 0.08 1 1004.7
20260505184534 67 63 0.0 0.0 0.02 0.08 0.08 1 1004.6
20260505183038 67 64 0.0 0.0 0.02 0.07 0.07 1 1004.6
20260505181525 67 64 0.0 0.0 0.02 0.07 0.07 1 1004.7
20260505180024 67 57 0.0 0.0 0.01 0.06 0.06 1 1004.9
20260505174518 67 65 0.0 0.0 0.01 0.06 0.06 1 1005.0
20260505173014 67 65 0.0 0.0 0.00 0.05 0.05 1 1005.1
20260505171510 67 65 0.0 0.0 0.01 0.05 0.05 1 1005.2
20260505170009 66 66 0.0 0.0 0.01 0.05 0.05 1 1005.4
20260505164503 66 359 0.0 2.0 0.01 0.05 0.05 1 1005.5
20260505163059 66 11 0.0 0.0 0.01 0.05 0.05 1 1005.6
20260505161603 66 10 0.0 0.0 0.00 0.04 0.04 1 1005.5
20260505153045 65 354 0.0 0.0 0.01 0.04 0.04 1 1005.6
20260505151541 65 354 0.0 0.0 0.01 0.04 0.04 1 1005.8
20260505124507 64 39 0.0 0.0 0.01 0.01 0.01 11 1005.4
20260505123003 64 39 0.0 0.0 0.00 0.00 0.00 16 1005.4
20260505121501 64 39 0.0 0.0 0.00 0.00 0.00 22 1005.1
20260505120101 64 39 0.0 0.0 0.00 0.00 0.00 29 1005.0
20260505114600 64 39 0.0 0.0 0.00 0.00 0.00 39 1004.7
20260505113114 65 39 0.0 8.0 0.00 0.00 0.00 48 1004.4
20260505111553 66 336 0.0 0.0 0.00 0.00 0.00 56 1004.3
20260505101553 67 23 0.0 0.0 0.00 0.00 0.00 63 1003.9
20260505100048 67 314 0.0 0.0 0.00 0.00 0.00 64 1004.2
20260505094547 67 90 0.0 0.0 0.00 0.00 0.00 65 1004.3
20260505093056 67 59 0.0 0.0 0.00 0.00 0.00 66 1003.9
20260505091600 67 34 0.0 0.0 0.00 0.00 0.00 67 1004.0
20260505090045 67 354 0.0 0.0 0.00 0.00 0.00 67 1004.0
20260505084544 67 243 0.0 0.0 0.00 0.00 0.00 68 1004.2
20260505083049 67 48 0.0 0.0 0.00 0.00 0.00 68 1004.3
20260505081540 67 73 0.0 0.0 0.00 0.00 0.00 68 1004.8
20260505080039 67 359 0.0 0.0 0.00 0.00 0.00 69 1004.9
20260505074537 67 4 0.0 0.0 0.00 0.00 0.00 69 1005.2
20260505073044 68 326 0.0 0.0 0.00 0.00 0.00 68 1005.2
20260505071545 68 64 0.0 0.0 0.00 0.00 0.00 68 1005.4
20260505070033 68 326 0.0 0.0 0.00 0.00 0.00 68 1005.7
20260505064532 67 347 0.0 2.0 0.00 0.00 0.00 68 1005.7
20260505063030 66 67 0.0 0.0 0.00 0.00 0.00 68 1005.8
20260505061526 64 328 0.0 0.0 0.00 0.00 0.00 68 1006.0
20260505060040 64 328 0.0 0.0 0.00 0.00 0.00 68 1006.0
20260505054522 63 26 0.0 0.0 0.00 0.00 0.00 68 1006.4
20260505053024 63 26 0.0 0.0 0.00 0.00 0.00 68 1006.5
20260505051525 63 26 0.0 0.0 0.00 0.00 0.00 68 1006.5
20260505041522 64 26 0.0 0.0 0.00 0.00 0.00 68 1006.9
20260505040017 64 26 0.0 0.0 0.00 0.00 0.00 68 1007.0
20260505034515 65 26 0.0 0.0 0.00 0.00 0.00 69 1007.1
20260505033017 65 26 0.0 0.0 0.00 0.00 0.00 69 1007.2
20260505031516 65 26 0.0 0.0 0.00 0.00 0.00 68 1007.3
20260505030016 66 26 0.0 0.0 0.00 0.00 0.00 68 1007.1